Location: Belfast
(54.5830°N, 5.9330°W)
Time: 12:35:42
(UTC+01:00)

ISS - Pass Details

Date: 20 May 2018
Orbit: 402 x 407 km, 51.6° (Epoch: 20 May)

Event Time Altitude Azimuth Distance (km) Brightness Sun altitude
Exits shadow 00:38:57 32° 141° (SE) 725 -3.0 -15.0°
Drops below altitude 10° 00:41:27 10° 95° (E) 1,459 -1.2 -15.0°
Sets 00:43:38 0° 86° (E) 2,320 0.0 -15.1°
